DW5274 Weather Reports


Display with metric or nautical units.
time (UTC)temp
F
wind
direction
speed
MPH
gust
MPH
rain 1hr
in
rain 24hr
in
rain mn
in
humidity
%
barometer
mb
20260906083007 57 321 0.0 0.0 0.00 0.00 0.00 71 1009.8
20260906081548 58 321 0.0 0.0 0.00 0.00 0.00 69 1009.9
20260906080047 58 321 0.0 0.0 0.00 0.00 0.00 68 1009.9
20260906074526 59 321 0.0 0.0 0.00 0.00 0.00 66 1009.9
20260906073028 59 321 0.0 0.0 0.00 0.00 0.00 66 1009.9
20260906071506 59 321 0.0 0.0 0.00 0.00 0.00 66 1010.1
20260906070003 60 321 0.0 0.0 0.00 0.00 0.00 64 1009.7
20260906064546 61 321 0.0 0.0 0.00 0.00 0.00 63 1010.3
20260906063040 62 321 0.0 0.0 0.00 0.00 0.00 61 1010.1
20260906061520 63 321 0.0 0.0 0.00 0.00 0.00 60 1010.6
20260906060026 63 321 0.0 0.0 0.00 0.00 0.00 59 1010.3
20260906054606 64 321 0.0 0.0 0.00 0.00 0.00 59 1010.8
20260906053101 64 321 0.0 0.0 0.00 0.00 0.00 58 1011.1
20260906051601 64 321 0.0 0.0 0.00 0.00 0.00 59 1011.6
20260906050039 64 321 0.0 0.0 0.00 0.00 0.00 60 1011.5
20260906044519 64 321 0.0 0.0 0.00 0.00 0.00 60 1011.4
20260906043019 64 321 0.0 0.0 0.00 0.00 0.00 60 1011.5
20260906041558 65 321 0.0 0.0 0.00 0.00 0.00 59 1011.0
20260906040134 65 321 0.0 0.0 0.00 0.00 0.00 58 1011.3
20260906034541 66 321 0.0 0.0 0.00 0.00 0.00 58 1011.4
20260906033054 66 321 0.0 0.0 0.00 0.00 0.00 56 1011.3
20260906031539 67 321 0.0 0.0 0.00 0.00 0.00 54 1011.1
20260906030039 68 321 0.0 0.0 0.00 0.00 0.00 52 1011.1
20260906024539 69 321 0.0 0.0 0.00 0.00 0.00 51 1010.9
20260906023037 70 321 0.0 0.0 0.00 0.00 0.00 49 1011.0
20260906021538 71 321 0.0 0.0 0.00 0.00 0.00 47 1011.1
20260906020038 73 321 0.0 0.0 0.00 0.00 0.00 46 1011.1
20260906014536 74 321 0.0 0.0 0.00 0.00 0.00 44 1011.2
20260906013036 75 321 0.0 0.0 0.00 0.00 0.00 44 1011.2
20260906011533 75 321 0.0 0.0 0.00 0.00 0.00 46 1011.2
20260906010031 74 321 0.0 0.0 0.00 0.00 0.00 45 1011.3
20260906004530 75 321 0.0 0.0 0.00 0.00 0.00 45 1011.4
20260906003030 76 321 0.0 0.0 0.00 0.00 0.00 40 1011.4
20260906001532 77 323 0.0 0.0 0.00 0.00 0.00 40 1011.5
20260906000029 76 323 0.0 0.0 0.00 0.00 0.00 41 1011.7
20260905234528 76 323 0.0 0.0 0.00 0.00 0.00 41 1011.8
20260905233025 76 323 0.0 0.0 0.00 0.00 0.00 43 1011.9
20260905231525 77 323 0.0 0.0 0.00 0.00 0.00 42 1011.9
20260905230024 77 321 0.0 0.0 0.00 0.00 0.00 41 1012.0
20260905224504 77 311 0.0 0.0 0.00 0.00 0.00 42 1012.3
20260905223001 77 311 0.0 0.0 0.00 0.00 0.00 42 1012.6
20260905221548 77 311 0.0 0.0 0.00 0.00 0.00 41 1012.8
20260905220046 77 311 0.0 0.0 0.00 0.00 0.00 41 1012.9
20260905214548 76 311 0.0 0.0 0.00 0.00 0.00 41 1013.2
20260905213041 75 311 0.0 0.0 0.00 0.00 0.00 45 1013.5
20260905211543 74 311 0.0 0.0 0.00 0.00 0.00 46 1013.8
20260905210042 73 311 0.0 0.0 0.00 0.00 0.00 44 1014.0
20260905204532 73 317 0.0 0.0 0.00 0.00 0.00 46 1014.2
20260905203030 71 318 1.0 0.0 0.00 0.00 0.00 49 1014.4
20260905201511 72 313 0.0 0.0 0.00 0.00 0.00 47 1014.5
20260905200019 71 313 0.0 0.0 0.00 0.00 0.00 52 1014.7
20260905194605 70 313 0.0 0.0 0.00 0.00 0.00 52 1015.0
20260905193045 69 313 0.0 0.0 0.00 0.00 0.00 53 1015.2
20260905191544 68 313 0.0 0.0 0.00 0.00 0.00 57 1015.3
20260905190023 68 313 0.0 0.0 0.00 0.00 0.00 59 1015.6
20260905184528 67 313 0.0 0.0 0.00 0.00 0.00 60 1015.8
20260905183101 66 313 0.0 0.0 0.00 0.00 0.00 61 1016.0
20260905181558 65 313 0.0 0.0 0.00 0.00 0.00 62 1016.3
20260905180042 64 313 0.0 0.0 0.00 0.00 0.00 64 1016.5
20260905174536 63 313 0.0 0.0 0.00 0.00 0.00 68 1016.6
20260905173014 62 313 0.0 0.0 0.00 0.00 0.00 70 1016.6
20260905171511 60 313 0.0 0.0 0.00 0.00 0.00 72 1016.7
20260905170100 59 313 0.0 0.0 0.00 0.00 0.00 73 1016.7
20260905164546 58 313 0.0 0.0 0.00 0.00 0.00 76 1016.7
20260905163027 57 314 1.0 0.0 0.00 0.00 0.00 79 1016.7
20260905161523 56 319 0.0 0.0 0.00 0.00 0.00 81 1016.6
20260905160006 54 320 1.0 0.0 0.00 0.00 0.00 87 1016.7
20260905154505 53 322 0.0 0.0 0.00 0.00 0.00 90 1016.7
20260905153053 51 322 0.0 0.0 0.00 0.00 0.00 93 1016.6
20260905151552 51 315 0.0 0.0 0.00 0.00 0.00 93 1016.7
20260905150054 50 315 0.0 0.0 0.00 0.00 0.00 93 1016.9
20260905144551 49 315 0.0 0.0 0.00 0.00 0.00 93 1016.8
20260905143048 48 315 0.0 0.0 0.00 0.00 0.00 93 1016.7
20260905141548 47 315 0.0 0.0 0.00 0.00 0.00 92 1016.6
20260905140045 47 315 0.0 0.0 0.00 0.00 0.00 92 1016.6
20260905134545 47 315 0.0 0.0 0.00 0.00 0.00 92 1016.5
20260905133033 47 315 0.0 0.0 0.00 0.00 0.00 92 1016.3
20260905131527 48 315 0.0 0.0 0.00 0.00 0.00 92 1016.1
20260905130002 48 315 0.0 0.0 0.00 0.00 0.00 92 1016.0
20260905124602 49 315 0.0 0.0 0.00 0.00 0.00 92 1015.9
20260905123049 49 315 0.0 0.0 0.00 0.00 0.00 92 1015.7
20260905121550 49 315 0.0 0.0 0.00 0.00 0.00 92 1015.8
20260905120023 49 315 0.0 0.0 0.00 0.00 0.00 91 1015.7
20260905114523 49 315 0.0 0.0 0.00 0.00 0.00 91 1015.7
20260905113004 49 315 0.0 0.0 0.00 0.00 0.00 90 1015.8
20260905111505 49 315 0.0 0.0 0.00 0.00 0.00 90 1015.8
20260905110043 49 315 0.0 0.0 0.00 0.00 0.00 90 1015.5
20260905104545 50 315 0.0 0.0 0.00 0.00 0.00 90 1015.3
20260905103023 50 315 0.0 0.0 0.00 0.00 0.00 90 1015.3
20260905101525 51 315 0.0 0.0 0.00 0.00 0.00 90 1015.3
20260905100002 51 315 0.0 0.0 0.00 0.00 0.00 90 1015.3
20260905094559 52 315 0.0 0.0 0.00 0.00 0.00 90 1015.2
20260905093041 52 315 0.0 0.0 0.00 0.00 0.00 90 1015.3
20260905091554 52 315 0.0 0.0 0.00 0.00 0.00 90 1015.3
20260905090023 52 315 0.0 0.0 0.00 0.00 0.00 90 1015.2
20260905084522 52 315 0.0 0.0 0.00 0.00 0.00 90 1015.2